Home > Weather > Olongapo > Past weeks

Flag for Philippines Past Weather in Olongapo, Philippines — Yesterday and Last 2 Weeks

Now
79 °F

Strong thunderstorms. Mostly cloudy.


Feels Like: 83 °F
Forecast: 76 / 84 °F
Wind: No wind

Location: Subic Bay Weather Station

Current Time: Aug 29, 2016 at 1:47:26 PM

Latest Report: Aug 29, 2016 at 1:00 PM


Visibility: 4 mi

Pressure: 29.77 "Hg

Humidity: 94%

Dew Point: 77 °F

Location of OlongapoLocation

Past Weather in Olongapo — Graph

°F

Olongapo Temperature Yesterday

Maximum temperature yesterday: 82 °F (at 10:00 AM)
Minimum temperature yesterday: 77 °F (at 1:00 AM)
Average temperature yesterday: 79 °F

High & Low Weather Summary for the Past Weeks

 TemperatureHumidityPressure
High93 °F (Aug 22, 1:00 PM)100% (Aug 21, 4:00 AM)29.80 "Hg (Aug 21, 4:00 AM)
Low75 °F (Aug 21, 4:00 AM)56% (Aug 22, 1:00 PM)29.50 "Hg (Aug 21, 4:00 PM)
Average82 °F89%29.65 "Hg
* Reported Aug 14 12:00 PM — Aug 29 12:00 PM, Olongapo, Weather by CustomWeather, © 2016

Note: Actual official high and low records may vary slightly from our data, if they occured in-between our weather recording intervals... More about our weather records

Advertising

Olongapo Weather History for the Previous 24 Hours

Scroll right to see more
 ConditionsComfort  
Time TempWeatherWind HumidityBarometerVisibility
12:00 PM
Mon, Aug 29
79 °FMostly cloudy.2 mph94%29.77 "Hg6 mi
11:00 AM77 °FThunderstorms. Mostly cloudy.5 mph94%29.80 "Hg6 mi
10:00 AM77 °FThunderstorms. Mostly cloudy.No wind94%29.80 "HgN/A
9:00 AM79 °FThunderstorms. Mostly cloudy.No wind94%29.80 "Hg4 mi
8:00 AM77 °FLight rain. Mostly cloudy.3 mph94%29.80 "Hg4 mi
7:00 AM82 °FLight rain. Mostly cloudy.17 mph84%29.77 "Hg4 mi
6:00 AM82 °FThunderstorms. Mostly cloudy.15 mph84%29.74 "Hg4 mi
5:00 AM81 °FThunderstorms. Mostly cloudy.14 mph89%29.71 "Hg5 mi
4:00 AM79 °FThunderstorms. Mostly cloudy.9 mph94%29.74 "Hg6 mi
3:00 AM81 °FLight rain. Mostly cloudy.14 mph94%29.71 "Hg6 mi
2:00 AM79 °FLight rain. Mostly cloudy.7 mph94%29.71 "Hg3 mi
1:00 AM81 °FLight rain. Mostly cloudy.12 mph89%29.77 "Hg6 mi
12:00 AM79 °FMostly cloudy.9 mph94%29.77 "HgN/A
11:00 PM
Sun, Aug 28
79 °FLight rain. Mostly cloudy.5 mph94%29.77 "Hg6 mi
10:00 PM79 °FStrong thunderstorms. Mostly cloudy.16 mph94%29.74 "Hg2 mi
9:00 PM79 °FLight rain. Mostly cloudy.7 mph94%29.74 "HgN/A
8:00 PM81 °FLight rain. Mostly cloudy.No wind94%29.74 "HgN/A
6:00 PM77 °FThunderstorms. Mostly cloudy.1 mph100%29.74 "Hg3 mi
5:00 PM79 °FLight rain. Mostly cloudy.5 mph94%29.71 "Hg5 mi
4:00 PM79 °FStrong thunderstorms. Mostly cloudy.8 mph94%29.74 "Hg2 mi
3:00 PM81 °FLight rain. Mostly cloudy.2 mph94%29.71 "HgN/A
2:00 PM81 °FLight rain. More clouds than sun.6 mph94%29.74 "HgN/A
1:00 PM81 °FLight rain. More clouds than sun.8 mph89%29.77 "HgN/A
Weather by CustomWeather, © 2016

See weather overviewHow to use our weather pages